Regional Weather Roundup
Issued by NWS

Home | Current Version | Previous Version | Text Only | Print | Product List | Glossary Off
Versions: 1 2 3 4 5 6 7 8 9 10 11 12 13 14 15 16 17 18 19 20 21 22 23 24 25 26 27 28 29 30 31 32 33 34 35 36 37 38 39 40 41 42 43 44 45 46 47 48 49 50

000
ASUS43 KLSX 301907
RWRMO

WEATHER SUMMARY FOR MISSOURI
NATIONAL WEATHER SERVICE SPRINGFIELD MO
200 PM CDT SAT AUG 30 2014

NOTE: "FAIR" INDICATES FEW OR NO CLOUDS BELOW 12,000 FEET WITH NO
       SIGNIFICANT WEATHER AND/OR OBSTRUCTIONS TO VISIBILITY.
       CURRENT SKY AND/OR WEATHER CONDITIONS ARE NOT AVAILABLE FOR
       CHILLICOTHE AND FARMINGTON.

MOZ001>031-035>038-043-044-053-054-302000-
...NORTHERN AND WESTERN MISSOURI...

CITY           SKY/WX    TMP DP  RH WIND       PRES   REMARKS
KANSAS CTY INT MOSUNNY   83  69  62 S3        29.93F
KANSAS C DTWN  SUNNY     86  66  51 VRB5      29.91F
LEE`S SUMMIT   MOSUNNY   85  67  54 VRB6      29.94S
ST JOSEPH      MOSUNNY   84  69  60 CALM      29.92F
CHILLICOTHE      N/A     85  68  56 CALM      29.93S
KIRKSVILLE     PTSUNNY   84  68  58 W7        29.93F

$$
MOZ066>068-077>081-088>096-101>105-302000-
...SOUTHWEST MISSOURI...

CITY           SKY/WX    TMP DP  RH WIND       PRES   REMARKS
SPRINGFIELD    PTSUNNY   87  68  52 SW5       29.95F HX  90
JOPLIN         CLOUDY    86  67  52 NW6       29.94F

$$
MOZ032>034-039>042-045>050-055>058-069>072-302000-
...CENTRAL MISSOURI...

CITY           SKY/WX    TMP DP  RH WIND       PRES   REMARKS
COLUMBIA       MOSUNNY   87  69  54 SW10      29.91F HX  91
JEFFERSON CITY MOSUNNY   88  69  53 W9        29.90F HX  92
ROLLA          TSTM      69  65  86 NW20G26   29.97R VSB 3/4
SEDALIA        PTSUNNY   90  68  48 SW10      29.92F HX  94
WHITEMAN AFB   SUNNY     85  68  56 W5        29.92F
OSAGE BEACH    MOSUNNY   88  64  45 W7        29.92F

$$
MOZ051-052-059>065-302000-
...EAST CENTRAL MISSOURI...

CITY           SKY/WX    TMP DP  RH WIND       PRES   REMARKS
ST LOUIS INTL  PTSUNNY   85  72  65 S13       29.94F HX  91
SPIRIT OF STL  PTSUNNY   84  72  67 S10G18    29.92F
ST CHARLES     MOSUNNY   85  71  63 SW12      29.91F HX  90

$$
MOZ072>076-082>087-097>100-106>115-302000-
...SOUTH CENTRAL AND SOUTHEAST MISSOURI...

CITY           SKY/WX    TMP DP  RH WIND       PRES   REMARKS
CAPE GIRARDEAU CLOUDY    81  73  76 SW12      29.98F
FARMINGTON     CLOUDY    79  70  73 S10       30.00F
POPLAR BLUFF   CLOUDY    82  71  69 SW10G18   29.98F
WEST PLAINS    PTSUNNY   82  68  62 VRB7      30.01F

$$


USA.gov is the U.S. government's official web portal to all federal, state and local government web resources and services.